Regional Weather Roundup
Issued by NWS State College, PA

Home | Current Version | Previous Version | Text Only | Print | Product List | Glossary Off
Versions: 1 2 3 4 5 6 7 8 9 10 11 12 13 14 15 16 17 18 19 20 21 22 23 24 25 26 27 28 29 30 31 32 33 34 35 36 37 38 39 40 41 42 43 44 45 46 47 48 49 50

000
ASUS41 KCTP 260603
RWRCTP

REGIONAL WEATHER ROUNDUP
NATIONAL WEATHER SERVICE STATE COLLEGE PA
200 AM EDT SAT MAY 26 2018

Note: "fair" indicates few or no clouds below 12,000 feet with no
significant weather and/or obstructions to visibility.

* = STATION THAT DOES NOT REPORT PRECIPITATION /E.G. RAIN...SNOW...ETC/
    THUNDER OR FOG.

PAZ002>004-007>009-013>016-020>023-029>032-260700-
WESTERN PENNSYLVANIA

CITY           SKY/WX    TMP DP  RH WIND       PRES   REMARKS
ERIE           FAIR      65  52  62 S6        29.83F
MEADVILLE      FAIR      66  53  63 S5        29.88S
FRANKLIN*      FAIR      64  53  67 SW6       29.89F
NEW CASTLE     FAIR      58  58 100 CALM      29.88F
BEAVER COUNTY  NOT AVBL
BUTLER*        FAIR      62  57  83 CALM      29.88F
PITTSBURGH INT MOCLDY    69  61  75 CALM      29.87F
PITTSBURGH     MOCLDY    69  66  90 S8        29.87F
INDIANA*       PTCLDY    63  61  94 CALM      29.92F
LATROBE        LGT RAIN  66  66 100 S8        29.90S
WASHINGTON CO* FAIR      69  64  84 CALM      29.91F
$$

PAZ004>006-010>012-017>019-024>028-033>037-041-042-045-046-049>053-260700-
CENTRAL PENNSYLVANIA

CITY           SKY/WX    TMP DP  RH WIND       PRES   REMARKS
BRADFORD       FAIR      51  48  89 CALM      29.91S
DUBOIS         FAIR      62  56  80 CALM      29.89F
CLEARFIELD     FAIR      61  58  90 N3        29.90F
JOHNSTOWN      FAIR      69  59  70 SW5       29.93F
ALTOONA        FAIR      69  61  75 S3        29.91F
STATE COLLEGE  FAIR      66  61  84 CALM      29.88F
WILLIAMSPORT   FAIR      61  55  81 NW3       29.85R
SELINSGROVE    FAIR      64  62  93 CALM      29.85F
FT INDIANTOWN  FAIR      65  64  97 CALM      29.87S
CAPITAL CITY   FAIR      75  65  70 SW8       29.86S
HARRISBURG     FAIR      75  65  70 SW3       29.85S
YORK           FAIR      75  66  73 SW10      29.87S
$$

PAZ038>040-043-044-047-048-054-055-060>062-067>071-260700-
EASTERN PENNSYLVANIA

CITY           SKY/WX    TMP DP  RH WIND       PRES   REMARKS
SCRANTON       FAIR      72  61  68 SW6       29.85F
MOUNT POCONO   FAIR      66  60  81 W12       29.89F
ALLENTOWN      FAIR      69  62  78 W3        29.85F
QUAKERTOWN*    CLEAR     70  66  88 SW5       29.87F
READING        FAIR      73  67  81 SW3       29.85F
LANCASTER      FAIR      71  66  84 SE3       29.87F
COATESVILLE    FAIR      72  66  83 VRB5      29.90F
POTTSTOWN      FAIR      72  66  81 SW3       29.88F
BLUE BELL      FAIR      72  64  78 SW5       29.89S
DOYLESTOWN     FAIR      72  65  78 SW6       29.86F
WILLOW GROVE   NOT AVBL
NORTH PHILA    FAIR      75  63  66 SW6       29.88F
PHILADELPHIA   FAIR      72  63  73 SW7       29.88F
$$




USA.gov is the U.S. government's official web portal to all federal, state and local government web resources and services.